Temp
60 54 48 52 56 58 57 50 54 56 60 58 59 60 65 70 66 66 70 71 71 71 76 76 74 74 74 74 74 74 72 73 73 71 69 67 66 70 72 73 74 74 72 66
53 49 57 58 56 51 49 47 51 56 57 56 59 56 63 66 66 68 70 71 72 73 72 73 72 72 71 73 74 74 73 74 73 73 72 71 71 73 73 74 74 74 71 67
51 54 57 53 51 49 46 46 48 53 54 56 54 55 58 63 65 66 67 71 73 72 71 70 69 70 72 72 74 73 74 74 74 72 72 72 72 71 69 70 71 73 74 72
54 57 53 52 50 53 46 54 55 52 51 48 53 49 58 61 62 60 65 67 69 71 67 69 70 70 71 72 74 74 73 73 73 73 73 70 68 67 71 71 71 72 74 73
50 48 49 48 51 55 52 55 54 52 51 48 51 47 56 57 58 61 64 67 70 71 71 72 70 70 73 73 72 73 72 72 72 71 72 71 69 72 73 72 71 72 71 71
49 54 55 55 55 57 53 52 51 50 51 41 51 48 52 58 61 66 70 71 70 72 73 73 71 71 70 69 66 69 70 71 70 70 71 71 70 71 69 69 68 68 69 69
46 48 51 54 49 52 53 51 39 37 39 38 44 43 53 59 63 64 68 71 72 71 71 69 68 67 67 65 64 65 67 68 69 69 71 71 70 70 69 69 68 67 67 67
42 37 47 53 53 48 51 52 42 31 33 42 40 41 52 61 66 68 65 67 66 66 67 66 66 64 64 62 62 62 63 65 68 68 68 70 70 69 70 69 69 68 68 69
43 41 49 50 51 55 49 45 54 38 27 37 47 50 55 58 60 61 62 61 62 66 66 65 62 60 60 59 59 60 61 62 65 66 66 66 67 66 66 68 68 68 68 66
49 38 46 48 53 51 52 55 42 44 31 31 44 43 51 56 60 63 63 63 65 65 67 64 61 60 58 58 57 58 58 58 59 62 63 63 64 64 65 65 64 65 64 63
54 47 40 46 46 47 47 46 48 50 45 37 36 48 60 62 60 62 62 62 60 65 63 63 60 59 58 58 58 59 58 57 56 56 59 57 57 57 58 60 62 62 61 62
52 44 37 43 48 51 55 50 50 42 36 40 37 46 56 59 62 57 60 59 60 59 61 62 59 58 57 58 58 59 58 57 57 57 56 56 56 56 56 58 59 61 60 57
48 39 32 35 45 46 48 49 53 51 43 35 37 48 54 55 55 60 59 61 59 61 59 58 57 57 58 58 58 58 57 58 57 56 55 55 55 56 57 58 60 59 57 56
51 38 37 35 41 44 41 46 49 49 38 40 43 51 54 56 57 60 61 61 62 60 59 59 57 57 58 57 58 58 57 58 56 55 54 54 55 56 57 57 56 54 54 52
51 37 39 42 44 45 41 41 42 42 47 43 49 50 56 61 61 63 63 60 59 59 57 58 58 58 57 56 56 56 57 55 54 53 53 53 54 54 54 52 51 48 47 47
45 35 42 32 40 41 36 44 45 45 48 49 50 50 56 64 64 61 60 59 56 57 58 57 56 56 55 55 56 55 56 55 52 53 52 54 52 49 47 45 43 42 42 42
41 35 34 34 38 38 34 40 46 48 51 51 45 54 56 54 55 60 62 59 59 60 59 58 58 58 58 57 55 55 55 54 49 51 51 50 48 44 42 41 40 39 39 39
38 36 34 30 34 27 42 55 53 50 53 54 55 55 56 59 60 61 64 63 62 57 60 59 59 60 59 56 55 55 53 51 48 46 46 45 44 42 40 39 38 37 37 37
50 41 31 31 32 39 45 45 47 45 47 54 53 55 57 53 54 58 59 63 63 64 64 60 58 57 58 56 54 51 46 47 46 43 44 43 42 39 38 37 37 36 36 36
42 47 37 29 31 28 43 46 47 49 38 56 54 53 53 52 48 57 65 63 62 61 54 53 53 52 52 52 49 45 45 45 45 46 43 42 38 38 37 37 36 36 36 35
34 35 34 32 34 38 43 45 52 36 41 56 53 54 52 48 57 60 56 53 50 49 48 48 49 48 49 45 43 43 45 44 47 44 40 39 38 38 39 38 36 34 34 33
35 33 33 35 32 29 42 43 45 50 51 48 49 49 49 52 51 50 50 48 47 45 44 41 43 41 40 41 40 41 42 43 41 40 39 38 37 37 36 35 34 33 33 33
35 42 36 39 39 43 42 46 47 48 49 47 49 47 47 45 47 49 46 43 41 40 38 36 37 38 35 35 36 36 39 37 36 36 36 35 35 35 34 34 33 32 33 33
38 41 40 39 42 44 45 45 45 47 47 46 47 47 46 45 43 38 38 37 37 34 34 32 34 33 32 31 31 33 34 34 33 34 34 34 34 33 33 34 34 33 33 33
42 40 37 35 37 42 45 45 45 42 40 39 39 40 42 41 37 36 35 34 33 31 30 30 31 30 28 29 29 29 30 32 32 32 31 32 33 33 32 33 34 34 35 37
36 37 40 40 43 45 44 42 41 39 39 39 38 35 33 36 34 33 31 30 29 29 29 29 27 27 26 27 26 25 27 31 32 31 31 33 33 33 33 33 32 33 35 35
MSLP
1015.42 1015.61 1015.14 1016.01 1016.57 1016.75 1016.92 1017.23 1017.06 1016.55 1016.36 1016.28 1015.66 1014.64 1013.90 1013.85 1014.05 1013.89 1013.80 1013.84 1013.99 1014.10 1014.61 1015.30 1016.09 1016.66 1017.14 1017.60 1018.01 1018.38 1018.83 1019.20 1019.76 1020.08 1020.29 1020.79 1021.03 1021.25 1021.25 1021.31 1021.49 1021.73 1022.16 1022.86
1015.79 1014.53 1015.20 1016.01 1016.61 1017.19 1017.40 1017.21 1017.22 1016.98 1016.68 1016.52 1015.41 1014.39 1013.75 1013.56 1013.11 1013.07 1013.15 1013.18 1013.30 1013.40 1014.13 1014.76 1015.50 1016.05 1016.45 1016.64 1016.95 1017.53 1017.82 1018.18 1018.78 1019.24 1019.49 1019.79 1020.04 1020.18 1020.43 1020.59 1020.89 1021.12 1021.55 1021.92
1014.06 1014.21 1015.23 1015.61 1016.49 1017.11 1017.35 1017.13 1017.34 1016.97 1016.83 1016.58 1015.86 1013.71 1012.72 1012.37 1012.41 1012.69 1012.71 1012.70 1012.67 1012.96 1013.27 1013.75 1014.49 1014.95 1015.63 1015.74 1015.78 1016.19 1016.57 1017.33 1017.79 1018.44 1019.07 1019.36 1019.47 1019.79 1020.07 1020.18 1020.39 1020.47 1020.75 1021.15
1014.08 1014.49 1014.45 1015.19 1015.74 1016.46 1016.87 1017.10 1017.18 1017.10 1016.93 1016.20 1016.12 1012.91 1011.65 1011.63 1011.55 1011.91 1011.84 1011.75 1011.80 1012.04 1012.53 1012.97 1013.45 1013.74 1014.01 1014.05 1014.60 1015.11 1015.78 1016.32 1016.76 1017.42 1017.79 1018.36 1018.44 1018.78 1018.86 1019.31 1019.67 1019.77 1020.07 1020.44
1013.17 1014.24 1014.56 1014.93 1014.93 1015.96 1016.21 1016.66 1017.09 1017.19 1017.01 1016.69 1015.73 1014.87 1011.14 1011.50 1010.86 1010.64 1010.53 1010.54 1010.76 1011.01 1011.43 1011.71 1012.32 1012.76 1012.94 1013.48 1013.76 1014.26 1014.91 1015.49 1015.74 1016.37 1016.92 1017.25 1017.60 1017.60 1017.97 1018.53 1019.03 1019.35 1019.67 1020.07
1014.05 1014.33 1014.33 1014.04 1015.09 1015.68 1016.63 1016.97 1017.45 1017.63 1017.16 1015.86 1014.98 1014.51 1010.86 1010.28 1009.84 1009.34 1009.20 1009.30 1009.83 1010.20 1010.51 1010.96 1011.76 1012.50 1012.89 1013.51 1013.85 1014.01 1014.20 1014.48 1015.05 1015.56 1015.86 1016.21 1016.52 1016.96 1017.53 1017.82 1018.48 1018.85 1019.22 1019.72
1014.01 1014.17 1014.46 1014.44 1015.24 1016.16 1015.78 1016.16 1017.08 1017.45 1016.89 1015.33 1015.21 1014.28 1010.96 1010.14 1009.35 1009.16 1008.72 1008.77 1009.22 1009.81 1010.17 1010.68 1011.36 1011.92 1012.51 1012.94 1013.31 1013.68 1014.06 1014.13 1014.50 1014.79 1015.08 1015.53 1015.77 1016.40 1016.80 1017.17 1017.82 1018.28 1018.71 1019.01
1011.99 1013.94 1013.67 1013.76 1013.37 1014.20 1015.01 1014.78 1014.84 1015.51 1015.86 1015.13 1015.52 1012.72 1010.20 1009.58 1008.92 1008.77 1009.20 1009.15 1009.41 1009.80 1010.22 1010.56 1011.07 1011.76 1012.18 1012.67 1013.09 1013.55 1013.87 1014.10 1014.13 1014.28 1014.65 1015.01 1015.49 1015.81 1016.31 1016.81 1017.18 1017.59 1018.03 1018.11
1010.08 1012.04 1012.88 1013.26 1013.50 1013.68 1014.70 1014.51 1014.94 1015.60 1017.01 1015.59 1013.30 1011.65 1010.48 1009.03 1008.43 1008.80 1008.95 1009.24 1009.24 1009.56 1009.94 1010.46 1011.10 1011.56 1011.94 1012.42 1012.70 1013.01 1013.53 1014.02 1014.16 1014.37 1014.71 1014.90 1015.37 1015.71 1015.93 1016.40 1016.77 1017.03 1017.66 1017.94
1008.92 1011.51 1013.01 1013.60 1013.57 1013.99 1013.16 1014.26 1015.08 1014.85 1015.20 1014.28 1011.95 1011.03 1009.09 1008.38 1008.19 1008.55 1008.50 1008.56 1008.56 1009.05 1009.53 1010.21 1011.02 1011.74 1012.08 1012.49 1012.69 1013.08 1013.41 1013.73 1014.01 1014.41 1014.33 1014.88 1015.17 1015.44 1015.75 1016.11 1016.45 1016.78 1017.22 1017.62
1008.64 1009.86 1013.28 1013.44 1012.49 1012.06 1013.28 1013.13 1013.33 1013.56 1013.88 1012.92 1011.63 1009.07 1007.73 1007.42 1008.29 1008.42 1008.30 1008.53 1008.78 1008.91 1009.34 1010.06 1010.74 1011.66 1011.98 1012.36 1012.87 1013.11 1013.10 1013.70 1014.20 1014.37 1014.54 1014.89 1015.28 1015.55 1015.78 1016.08 1016.19 1016.53 1017.05 1017.33
1008.79 1010.39 1012.12 1011.92 1012.50 1012.48 1011.96 1012.00 1012.52 1012.50 1012.92 1013.04 1012.07 1008.70 1007.54 1007.68 1007.98 1008.70 1008.51 1008.78 1009.00 1009.53 1009.82 1010.20 1010.74 1011.53 1011.75 1011.95 1012.26 1012.79 1013.35 1013.54 1014.00 1014.09 1014.56 1014.91 1015.27 1015.65 1015.68 1016.03 1016.12 1016.43 1016.74 1016.97
1008.33 1010.12 1012.25 1013.58 1013.56 1013.11 1011.98 1011.74 1011.41 1011.82 1012.56 1012.22 1011.62 1008.03 1008.00 1008.25 1008.43 1008.40 1008.71 1008.89 1009.19 1009.37 1009.88 1010.24 1010.87 1011.30 1011.53 1011.81 1012.14 1012.66 1013.15 1013.67 1013.90 1014.16 1014.48 1014.87 1015.23 1015.51 1015.52 1015.63 1016.04 1016.52 1016.92 1017.13
1007.51 1009.35 1010.18 1010.65 1010.64 1011.75 1012.10 1011.99 1012.03 1012.11 1012.36 1011.19 1009.60 1007.82 1008.12 1008.18 1008.26 1008.32 1008.53 1008.73 1008.96 1009.32 1009.87 1010.33 1010.73 1011.06 1011.55 1011.76 1012.02 1012.53 1012.81 1013.32 1013.69 1013.98 1014.34 1014.65 1014.99 1015.30 1015.48 1015.76 1016.11 1016.41 1016.72 1017.16
1007.63 1009.10 1010.44 1010.86 1010.96 1011.15 1011.19 1011.34 1011.66 1011.63 1009.87 1010.63 1005.52 1007.93 1007.99 1007.66 1007.93 1008.12 1008.22 1008.53 1008.81 1009.26 1009.83 1010.13 1010.53 1010.79 1011.03 1011.55 1011.86 1012.46 1012.77 1013.23 1013.44 1013.90 1014.26 1014.46 1014.78 1015.17 1015.75 1016.03 1016.08 1016.45 1016.88 1017.33
1008.05 1008.89 1010.32 1011.77 1011.71 1011.36 1011.25 1010.95 1010.86 1009.52 1009.64 1008.99 1007.61 1006.70 1007.72 1007.60 1008.00 1008.17 1008.10 1008.41 1008.77 1008.97 1009.26 1009.54 1009.74 1010.27 1010.51 1010.77 1011.28 1011.96 1012.36 1012.84 1013.26 1013.58 1013.93 1014.44 1015.00 1015.30 1015.71 1016.01 1016.48 1017.02 1017.46 1018.00
1008.78 1009.71 1010.96 1011.92 1012.27 1011.96 1011.38 1008.09 1009.06 1008.89 1008.82 1007.33 1007.19 1005.74 1007.43 1007.87 1007.84 1007.56 1007.44 1007.98 1008.21 1008.59 1008.95 1009.18 1009.10 1009.40 1009.51 1010.09 1010.77 1011.11 1011.76 1012.67 1013.30 1013.54 1013.67 1014.10 1014.72 1015.21 1015.87 1016.40 1016.98 1017.40 1017.92 1018.41
1008.04 1009.97 1010.62 1012.21 1012.35 1011.40 1006.37 1007.49 1007.50 1007.55 1006.98 1006.47 1005.56 1006.32 1006.83 1007.08 1007.05 1006.98 1007.03 1007.07 1007.42 1008.20 1008.56 1008.53 1008.65 1009.04 1009.44 1010.07 1010.68 1011.04 1011.76 1012.43 1013.15 1013.29 1013.43 1013.90 1014.79 1015.26 1015.73 1016.47 1017.04 1017.63 1018.10 1018.42
1007.45 1008.50 1010.30 1011.24 1010.81 1008.28 1006.36 1006.60 1006.74 1007.07 1005.09 1005.76 1005.12 1006.18 1006.69 1007.43 1007.62 1006.83 1006.99 1006.79 1006.73 1006.93 1007.25 1008.07 1008.64 1008.82 1009.02 1009.51 1010.25 1011.11 1011.66 1012.18 1012.85 1013.05 1013.21 1013.41 1014.22 1015.02 1015.66 1016.33 1016.91 1017.53 1018.01 1018.56
1007.91 1008.21 1008.86 1010.30 1009.48 1007.70 1004.00 1006.42 1007.24 1007.76 1004.34 1004.80 1005.52 1006.09 1006.76 1007.56 1007.32 1004.61 1006.04 1006.13 1006.11 1006.53 1007.56 1008.20 1008.58 1008.80 1009.25 1009.46 1010.17 1010.72 1011.00 1011.70 1011.82 1012.08 1012.67 1013.21 1013.90 1014.61 1015.32 1015.94 1016.67 1017.47 1017.92 1018.37
1008.13 1008.39 1007.93 1008.39 1007.96 1005.71 1005.50 1005.54 1006.01 1006.86 1003.89 1003.86 1004.54 1004.90 1005.91 1006.40 1005.32 1005.25 1005.73 1006.46 1007.21 1007.68 1007.77 1008.44 1009.29 1009.61 1009.90 1010.37 1010.49 1010.64 1011.05 1011.00 1011.08 1012.01 1012.64 1013.30 1013.91 1014.53 1015.09 1015.76 1016.64 1017.38 1018.17 1018.65
1005.95 1007.00 1007.47 1007.80 1007.76 1006.36 1005.54 1006.33 1005.24 1004.89 1004.84 1004.98 1005.28 1005.68 1006.36 1006.41 1006.64 1006.91 1007.11 1007.71 1008.15 1008.87 1009.39 1008.86 1010.13 1010.57 1010.69 1011.02 1011.28 1011.32 1011.08 1011.07 1011.38 1011.92 1012.53 1013.17 1013.77 1014.45 1015.12 1015.76 1016.76 1017.56 1018.21 1018.90
1005.77 1004.89 1005.06 1005.82 1004.98 1004.80 1005.33 1004.96 1005.44 1005.34 1005.30 1005.60 1006.06 1006.54 1006.89 1007.33 1007.74 1008.05 1008.29 1009.01 1009.47 1010.06 1010.27 1009.94 1010.11 1011.32 1011.36 1011.61 1012.22 1011.84 1011.88 1011.92 1012.15 1012.29 1012.68 1013.11 1013.82 1014.43 1014.98 1015.72 1016.61 1017.51 1018.06 1018.56
1005.57 1004.95 1005.40 1006.31 1005.20 1005.04 1005.39 1005.75 1006.20 1006.21 1006.32 1006.41 1007.30 1007.35 1007.55 1008.22 1009.04 1009.41 1010.12 1009.94 1010.55 1010.98 1011.29 1011.41 1011.80 1011.69 1012.01 1012.34 1012.48 1012.69 1012.40 1012.63 1012.75 1012.90 1013.14 1013.40 1013.82 1014.44 1015.04 1015.62 1016.17 1016.83 1017.42 1017.98
1005.52 1005.78 1005.46 1005.57 1005.93 1006.09 1005.67 1005.56 1006.28 1006.96 1007.29 1007.69 1009.11 1009.32 1008.50 1009.41 1010.41 1011.00 1011.22 1011.47 1012.21 1012.40 1012.46 1012.44 1012.66 1012.49 1012.97 1013.14 1013.10 1013.31 1013.18 1013.13 1013.12 1013.35 1013.66 1014.03 1014.39 1014.86 1015.26 1015.59 1015.92 1016.29 1016.59 1016.80
1006.69 1006.29 1005.83 1005.58 1005.55 1005.46 1005.71 1006.28 1007.13 1007.91 1008.55 1009.64 1010.25 1011.05 1010.46 1010.71 1011.35 1012.56 1013.04 1013.63 1013.96 1013.32 1013.57 1013.61 1013.51 1013.53 1013.68 1013.82 1014.07 1013.99 1013.82 1013.47 1013.49 1013.80 1014.17 1014.48 1014.82 1015.21 1015.59 1015.99 1016.41 1016.64 1016.80 1017.07
Wind_Speed
13 10 16 17 14 3 10 7 10 4 2 4 13 17 17 14 9 11 14 13 14 17 13 14 16 17 17 16 17 17 16 17 12 11 11 10 10 10 10 10 13 14 12 11
9 20 14 15 13 5 3 4 7 5 1 5 12 18 17 17 17 15 15 15 15 15 13 13 15 16 18 18 19 18 19 18 15 11 10 9 10 10 11 10 12 13 13 13
18 13 18 16 16 14 6 9 7 6 0 5 8 16 17 14 18 14 13 14 14 16 15 15 16 18 17 20 21 21 21 19 17 15 10 9 7 7 8 9 9 11 14 12
11 12 21 18 19 21 12 12 10 5 5 7 3 9 8 6 16 14 18 18 17 16 12 10 15 18 21 21 18 20 17 19 17 19 15 17 12 12 12 11 11 10 13 12
12 18 20 20 23 19 6 11 9 3 6 5 9 8 3 3 10 17 19 19 19 17 16 17 15 16 19 15 17 16 18 18 18 17 18 14 16 11 9 8 11 12 10 12
4 1 14 15 11 17 16 12 5 2 3 10 14 11 8 10 15 16 18 20 20 19 17 14 7 9 12 10 10 13 18 20 16 18 21 20 19 16 10 11 9 8 8 7
6 8 4 8 15 8 10 16 4 5 7 8 2 8 13 7 16 15 13 12 13 14 14 13 12 11 11 13 13 13 15 18 17 18 18 19 18 16 15 13 9 10 8 8
17 11 16 10 10 12 21 18 7 10 8 3 2 11 5 10 17 15 13 12 8 6 8 9 7 7 8 9 10 11 13 15 16 16 17 15 16 10 10 11 9 8 9 8
17 8 7 7 6 16 17 17 5 6 3 1 7 5 11 17 15 9 12 10 13 12 10 9 5 5 5 5 7 9 11 12 12 13 12 12 13 13 10 12 10 9 9 7
9 8 7 4 6 1 15 13 8 4 6 7 5 6 10 5 12 7 8 10 12 12 12 8 6 6 5 3 4 5 7 10 10 11 10 10 12 11 10 9 10 10 8 7
13 7 7 8 13 18 10 15 6 7 4 4 2 4 8 13 7 6 9 9 9 9 8 8 7 6 6 6 6 7 6 6 7 8 9 7 6 5 4 5 8 7 7 8
5 6 8 21 4 3 12 13 13 7 7 4 1 6 4 7 7 3 7 6 4 4 5 8 8 8 8 8 8 7 7 7 7 7 7 6 5 6 7 8 6 7 8 6
10 3 8 6 5 2 17 10 21 8 2 7 5 5 5 1 5 5 5 5 4 4 7 7 7 8 8 8 7 8 7 7 6 7 6 7 6 7 7 8 9 8 8 7
9 4 6 11 6 9 9 13 13 13 5 5 17 13 1 3 6 3 5 6 4 4 5 7 8 8 8 7 8 8 9 8 9 8 8 8 7 6 7 7 8 8 8 8
10 7 4 3 6 11 7 12 11 15 26 13 30 18 15 11 3 2 2 3 3 5 6 8 8 8 9 9 9 9 9 9 9 9 8 8 7 7 7 7 6 5 5 5
2 4 9 2 2 4 5 15 22 28 22 28 25 29 1 10 10 8 10 6 6 6 7 9 10 11 11 12 12 10 10 10 9 10 10 10 8 6 6 5 5 5 5 5
8 6 5 16 5 6 4 28 22 23 27 26 27 14 13 9 11 16 14 12 11 6 7 8 11 12 10 10 10 12 11 9 10 10 10 9 8 8 6 6 6 6 6 5
14 8 4 5 6 10 15 20 24 25 23 29 30 13 9 14 13 12 12 13 13 11 11 11 11 9 7 6 9 8 9 10 11 11 9 9 8 8 7 7 7 5 4 6
16 10 6 8 11 9 20 8 15 15 28 22 24 20 17 3 4 13 10 13 14 15 12 8 5 6 6 8 8 9 9 9 9 13 13 11 10 8 8 8 8 5 6 4
6 12 4 6 15 19 8 11 8 8 29 16 18 18 15 11 13 17 19 21 22 10 3 4 5 2 4 4 7 9 10 10 14 13 14 10 9 10 10 10 9 4 4 6
10 8 19 7 11 13 2 10 16 13 9 12 17 19 16 13 18 6 2 2 2 2 7 4 4 5 5 3 5 8 8 14 11 8 8 10 10 10 10 9 4 7 6 6
14 13 10 8 11 22 5 5 23 6 2 3 2 4 7 16 4 2 3 3 5 5 4 7 3 2 3 2 2 7 10 4 5 8 9 10 10 8 7 10 7 7 7 7
10 9 8 11 11 2 6 2 1 2 4 5 4 3 4 4 7 3 2 4 5 6 3 4 5 3 5 5 2 3 3 3 4 7 7 7 7 7 8 9 9 7 7 7
4 3 5 4 5 4 6 4 3 4 3 3 2 5 6 5 3 4 3 5 5 5 5 4 3 5 5 6 5 3 1 1 3 4 5 6 8 8 6 5 6 7 7 7
4 12 10 2 1 1 6 9 4 3 4 6 4 2 6 8 5 4 4 5 4 3 3 3 4 6 6 5 6 5 3 2 4 5 4 4 4 5 5 4 6 6 7 9
1 0 10 7 5 3 0 7 8 8 5 6 5 3 7 6 9 7 7 4 3 6 5 6 7 7 6 6 6 6 5 2 4 5 4 4 4 4 4 5 4 1 3 6
Wind_Direction
183 184 194 173 181 185 183 160 241 222 182 225 236 252 253 247 226 241 240 219 219 225 224 215 207 206 206 205 208 210 205 208 200 202 199 207 211 215 218 216 217 212 208 197
172 213 191 179 179 140 133 123 242 272 163 223 264 261 259 251 236 235 235 234 229 228 209 210 209 207 207 207 211 210 214 208 205 207 203 204 210 217 219 218 219 216 208 199
186 181 161 165 181 184 194 194 211 262 143 235 287 269 248 239 229 235 241 243 241 236 224 210 203 207 208 215 211 213 213 212 206 206 206 214 220 223 215 221 219 217 214 211
195 170 168 170 182 184 190 197 217 213 230 254 252 283 242 263 235 218 232 230 232 230 227 231 214 205 206 216 212 213 211 211 210 205 205 207 210 213 218 216 219 217 217 215
172 166 171 184 185 186 189 166 184 174 242 280 223 262 239 263 256 238 228 230 226 227 228 231 213 214 218 216 210 210 210 212 204 203 208 208 218 220 217 213 218 220 216 217
111 168 179 187 168 183 136 119 95 126 261 255 244 232 249 239 248 249 239 232 229 229 230 238 226 217 225 215 215 214 212 215 206 201 208 213 215 220 213 212 215 214 213 210
152 168 112 150 137 166 181 161 154 219 216 247 85 241 260 245 249 235 250 248 232 232 233 237 232 220 228 219 215 215 219 219 209 209 212 215 216 217 220 213 213 209 208 209
171 195 180 170 189 171 187 180 184 189 198 191 138 239 232 250 257 267 265 267 255 259 237 228 232 235 239 235 224 219 219 225 215 212 216 214 217 216 219 215 209 213 216 218
180 169 163 182 145 156 180 210 154 105 23 229 209 249 258 253 260 267 265 252 250 235 223 224 222 215 221 218 207 207 210 219 216 210 212 212 215 215 212 216 213 209 218 225
182 123 189 134 118 151 190 146 186 229 191 227 209 252 235 205 233 265 268 251 253 231 230 214 198 192 161 164 153 176 197 202 198 203 198 210 212 211 209 210 202 199 200 199
169 116 154 158 202 180 158 192 192 188 222 239 258 224 219 234 169 270 290 268 284 234 214 188 170 173 154 151 174 177 167 179 188 194 199 195 196 189 183 199 197 189 185 194
147 105 153 191 50 265 198 194 191 189 191 260 15 257 174 214 204 272 311 290 297 256 197 177 167 174 173 175 169 175 174 175 182 169 177 190 197 204 205 213 201 187 188 163
170 123 116 149 229 207 205 190 205 201 80 197 185 241 44 172 226 268 278 291 267 206 180 169 173 190 192 188 181 180 177 184 168 160 156 164 177 192 203 207 208 195 181 168
126 130 149 186 206 130 191 198 202 202 224 176 236 234 356 212 234 231 230 249 254 238 205 195 191 200 206 197 187 191 184 182 172 163 167 171 175 189 191 182 177 176 175 163
173 159 105 86 159 161 159 180 177 196 226 210 247 242 231 251 241 225 265 233 225 224 216 212 218 214 203 202 195 198 193 183 172 174 179 183 174 176 176 174 159 138 142 150
253 173 170 90 92 132 161 184 192 211 215 233 248 257 73 241 223 230 233 223 228 221 233 223 217 222 215 204 199 197 198 191 177 183 186 187 179 167 168 151 142 139 133 128
164 117 132 216 138 97 281 212 204 217 218 226 235 236 188 207 222 239 245 231 235 248 228 231 222 227 223 207 194 203 195 186 190 196 188 182 179 170 165 147 148 147 147 135
152 137 121 135 139 214 260 182 212 221 226 226 244 235 225 219 218 227 242 250 255 207 229 233 226 221 222 202 211 193 184 193 194 198 190 177 179 176 162 158 160 137 137 142
188 156 148 166 205 284 271 194 197 196 245 231 239 241 237 218 308 255 246 254 245 244 238 215 186 213 225 203 187 187 183 190 193 207 202 184 180 168 160 165 159 149 145 138
143 192 145 163 210 226 321 165 130 95 267 214 220 230 213 177 238 245 226 232 241 255 143 174 188 207 236 204 174 178 196 193 210 206 202 181 163 166 172 167 160 133 144 147
167 174 207 191 225 254 242 135 140 187 252 208 204 218 207 202 228 272 281 93 60 71 119 113 170 202 220 219 172 203 202 211 217 179 163 167 171 173 172 156 139 138 137 134
170 171 197 198 225 250 118 151 185 218 183 141 102 170 184 216 220 192 105 73 64 56 35 65 72 79 41 344 222 224 217 204 155 157 165 172 170 163 152 147 136 136 143 150
191 198 165 197 216 74 192 223 142 170 178 171 168 185 208 208 216 212 127 47 49 43 51 53 59 13 38 22 321 282 296 180 163 162 169 149 140 141 144 147 146 147 157 164
243 148 186 130 205 199 182 196 219 177 200 121 175 156 148 141 125 100 111 74 55 46 44 24 44 76 54 18 12 335 321 142 131 145 151 146 152 147 146 142 157 160 169 167
183 157 174 251 201 191 247 214 193 78 74 82 39 356 102 115 101 108 75 65 67 69 51 56 72 73 56 30 39 14 13 138 119 119 120 126 125 148 145 155 170 179 190 186
294 79 186 213 175 198 341 162 144 138 129 130 133 89 50 85 111 95 79 47 39 57 35 45 46 60 46 49 48 30 15 51 127 130 145 154 152 155 163 169 155 90 193 196